Location: Im Fang
(46.6019°N, 7.2397°E)
Time: 14:21:31
(UTC+00:00)

Cosmos 2227 - Pass Details

Date: 08 December 2019
Orbit: 834 x 861 km, 71.0° (Epoch: 28 January)

Event Time Altitude Azimuth Distance (km) Brightness Sun altitude
Rises 05:38:27 0° 221° (SW) 3,420 7.1 -13.7°
Reaches altitude 10° 05:40:58 10° 227° (SW) 2,490 6.4 -13.3°
Maximum altitude 05:46:33 51° 303° (WNW) 1,075 4.4 -12.4°
Drops below altitude 10° 05:52:10 10° 19° (NNE) 2,510 6.7 -11.5°
Sets 05:54:43 0° 24° (NNE) 3,451 7.4 -11.1°
